Miscellaneous Local Product
Issued by NWS Hastings, NE

Home | Current Version | Previous Version | Graphics & Text | Print | Product List | Glossary On
Versions: 1 2 3 4 5 6 7 8 9 10 11 12 13 14 15 16 17 18 19 20 21 22 23 24 25 26 27 28 29 30 31 32 33 34 35 36 37 38 39 40 41 42 43 44 45 46 47 48 49 50
000
AXUS43 KGID 212002
MISGRI

GID CWA HOURLY WEATHER ROUNDUP
NATIONAL WEATHER SERVICE HASTINGS NE
300 PM CDT THU AUG 21 2014

NOTE: "FAIR" INDICATES FEW OR NO CLOUDS BELOW 12,000 FEET WITH NO
SIGNIFICANT WEATHER AND/OR OBSTRUCTIONS TO VISIBILITY.

...SOUTH CENTRAL NEBRASKA...

CITY           SKY/WX    TMP DP  RH WIND       PRES   REMARKS
GRAND ISLAND   MOSUNNY   87  70  56 VRB5      29.87S HX  92
HASTINGS       SUNNY     84  69  60 W6        29.87S
KEARNEY        SUNNY     86  70  58 CALM      29.88S HX  90
ORD            SUNNY     86  68  54 N8        29.86S
YORK           PTSUNNY   82 N/A N/A SW9       29.87R
AURORA         MOSUNNY   83  73  72 SW6       29.88R
LEXINGTON      SUNNY     87  69  53 N5        29.89F HX  91
HOLDREGE       SUNNY     86  68  54 NW3       29.88S
HEBRON         MOSUNNY   89  68  49 S12       29.83F HX  92

...NEBRASKA PANHANDLE...

CITY           SKY/WX    TMP DP  RH WIND       PRES   REMARKS
CHADRON        SUNNY     87  54  32 CALM      29.95F
ALLIANCE       SUNNY     87  51  28 VRB5      30.00S
SCOTTSBLUFF    SUNNY     87  51  28 NW7       30.01F
SIDNEY         SUNNY     87  48  25 N9        30.04S

...WESTERN AND NORTH CENTRAL NEBRASKA...

CITY           SKY/WX    TMP DP  RH WIND       PRES   REMARKS
VALENTINE      MOSUNNY   87  58  37 N9        29.93R
AINSWORTH      SUNNY     83  60  44 N6        29.92S
ONEILL         SUNNY     85  68  55 N7        29.88S
BROKEN BOW     SUNNY     88  70  55 N6        29.90S HX  93
IMPERIAL       SUNNY     90  54  29 N10       29.95F
NORTH PLATTE   SUNNY     89  64  43 SE6       29.91S HX  90
MCCOOK         MOSUNNY   94  54  25 N6        29.89F HX  92

...EASTERN NEBRASKA...

CITY           SKY/WX    TMP DP  RH WIND       PRES   REMARKS
NORFOLK        MOSUNNY   90  71  53 W9        29.82S HX  96
SO SIOUX CITY  MOSUNNY   90  75  61 VRB7      29.80S HX 100
TEKAMAH        SUNNY     92  72  51 SW10      29.81S HX  99
COLUMBUS       MOSUNNY   88  72  58 S8        29.85S HX  94
ALBION         SUNNY     88  68  51 NW3       29.85R HX  91
OMAHA EPPLEY   MOSUNNY   89  68  49 S12       29.84R HX  93
OFFUTT AFB     MOSUNNY   88  75  65 SW7       29.84S HX  98
MILLARD        MOSUNNY   88  71  57 W10       29.84S HX  94
LINCOLN        PTSUNNY   86  70  58 SW10      29.85S HX  90
NEBRASKA CITY  PTSUNNY   87  73  62 NW3       29.85R HX  93
BEATRICE       CLOUDY    87  74  65 S13       29.83F HX  95
FALLS CITY     MOSUNNY   99  72  41 S15G24    29.82S HX 108

...NORTHERN KANSAS...

CITY           SKY/WX    TMP DP  RH WIND       PRES   REMARKS
GOODLAND       SUNNY     93  47  20 N10       29.98S
HILL CITY      SUNNY     96  63  33 N9        29.85F HX  97
NORTON         CLEAR     95  46  18 N10       29.86S HX  91
PHILLIPSBURG   SUNNY     97  63  32 SW6       29.83F HX  98
SMITH CENTER   SUNNY     93  66  40 SW7       29.82F HX  96
BELOIT         SUNNY     99  66  34 S9        29.80S HX 102
HAYS           SUNNY     99  64  32 S18       29.84S HX 101
RUSSELL        MOSUNNY   98  67  36 S17G29    29.82F HX 102
CONCORDIA      SUNNY     94  70  45 S16G23    29.82F HX 100
SALINA         SUNNY     99  67  35 S17G31    29.82F HX 103
TOPEKA         SUNNY     98  69  38 S15G23    29.85F HX 104



USA.gov is the U.S. government's official web portal to all federal, state and local government web resources and services.